Location: Asheville, NC
(35.6000°N, 82.5500°W)
Time: 20:04:10
(UTC-05:00)

ISS - Pass Details

Date: 06 December 2020
Orbit: 418 x 419 km, 51.6° (Epoch: 17 January)

Event Time Altitude Azimuth Distance (km) Brightness Sun altitude
Rises 18:25:23 0° 320° (NW) 2,360 0.3 -13.7°
Reaches altitude 10° 18:27:41 10° 333° (NNW) 1,494 -0.9 -14.1°
Maximum altitude 18:30:36 27° 34° (NE) 833 -2.7 -14.7°
Enters shadow 18:30:51 27° 42° (NE) 838 -2.7 -14.7°
